Location: Newark
(30.0333°N, 31.2167°E)
Time: 00:59:23
(UTC+00:00)

Tiros 1 - Pass Details

Date: 25 January 2020
Orbit: 631 x 664 km, 48.4° (Epoch: 21 February)

Event Time Altitude Azimuth Distance (km) Brightness Sun altitude
Rises 10:58:38 0° 265° (W) 2,926 10.7 39.4°
Reaches altitude 10° 11:01:26 10° 282° (WNW) 2,025 9.9 39.2°
Maximum altitude 11:05:00 21° 332° (NNW) 1,431 8.8 39.0°
Drops below altitude 10° 11:08:37 10° 22° (NNE) 2,046 9.3 38.8°
Sets 11:11:27 0° 38° (NE) 2,965 10.1 38.6°
